Weather History for Frankfort, KY

Change the Weather History Date:

Sunday, September 15, 2013

  Actual Average Record
Temperature  
Mean Temperature 63 °F 68 °F  
Max Temperature 81 °F 80 °F 97 °F (1897)
Min Temperature 44 °F 56 °F 38 °F (1964)
Degree Days  
Heating Degree Days 2 1  
Month to date heating degree days 11 6  
Since 1 July heating degree days 15 7  
Cooling Degree Days 0 4  
Month to date cooling degree days 118 91  
Year to date cooling degree days 1054 1093  
Growing Degree Days 12 (Base 50)    
Moisture  
Dew Point 52 °F    
Average Humidity 69    
Maximum Humidity 93    
Minimum Humidity 45    
Precipitation  
Precipitation 0.00 in 0.11 in 0.75 in (1901)
Month to date precipitation 0.09 1.75  
Year to date precipitation 35.15 33.06  
Sea Level Pressure  
Sea Level Pressure 30.10 in    
Wind  
Wind Speed 4 mph (SW)    
Max Wind Speed 17 mph    
Max Gust Speed 22 mph    
Visibility 10 miles    
Events      
T = Trace of Precipitation, MM = Missing Value Source: NWS Daily Summary

Daily Weather History Graph

Daily Weather History Graph

Search for Another Location

Airport:

Trip Planner

Search our weather history database for the weather conditions in past years. The results will help you decide how hot, cold, wet, or windy it might be!

Date:

Astronomy

Sep. 15, 2013 Rise Set
Actual Time 7:21 AM EDT 7:47 PM EDT
Civil Twilight 6:55 AM EDT 8:13 PM EDT
Nautical Twilight 6:23 AM EDT 8:44 PM EDT
Astronomical Twilight 5:52 AM EDT 9:16 PM EDT
Moon 5:11 PM EDT (9/15) 3:01 AM EDT (9/15)
Length of Visible Light 13h 18m
Length of Day
12h 25m
Waxing Gibbous, 82% of the Moon is Illuminated
Sep 15
Waxing Gibbous
Sep 19
Full
Sep 26
Last Quarter
Oct 4
New
Oct 11
First Quarter

Hourly Weather History & Observations

Time (EDT) Temp. Heat Index Dew Point Humidity Pressure Visibility Wind Dir Wind Speed Gust Speed Precip Events Conditions
1:53 AM 48.9 °F - 45.0 °F 86% 30.10 in 10.0 mi Calm Calm - N/A   Clear
2:53 AM 48.0 °F - 45.0 °F 89% 30.11 in 10.0 mi Calm Calm - N/A   Clear
3:53 AM 46.0 °F - 44.1 °F 93% 30.11 in 10.0 mi Calm Calm - N/A   Clear
4:53 AM 45.0 °F - 43.0 °F 93% 30.11 in 10.0 mi Calm Calm - N/A   Clear
5:53 AM 46.0 °F - 44.1 °F 93% 30.11 in 10.0 mi Calm Calm - N/A   Clear
6:53 AM 46.0 °F - 44.1 °F 93% 30.12 in 10.0 mi Calm Calm - N/A   Clear
7:53 AM 46.0 °F - 45.0 °F 96% 30.14 in 10.0 mi Calm Calm - N/A   Clear
8:53 AM 54.0 °F - 50.0 °F 86% 30.13 in 10.0 mi Calm Calm - N/A   Clear
9:53 AM 61.0 °F - 52.0 °F 72% 30.14 in 10.0 mi SSE 3.5 mph - N/A   Clear
10:53 AM 68.0 °F - 54.0 °F 61% 30.14 in 10.0 mi Variable 4.6 mph - N/A   Clear
11:53 AM 72.0 °F - 55.0 °F 55% 30.13 in 10.0 mi West 6.9 mph - N/A   Clear
12:53 PM 75.0 °F - 55.0 °F 50% 30.12 in 10.0 mi WSW 8.1 mph - N/A   Clear
1:53 PM 77.0 °F - 55.9 °F 48% 30.11 in 10.0 mi SSW 6.9 mph - N/A   Partly Cloudy
2:53 PM 79.0 °F - 57.0 °F 47% 30.09 in 10.0 mi SSW 12.7 mph 19.6 mph N/A   Partly Cloudy
3:53 PM 80.1 °F 80.4 °F 57.0 °F 45% 30.07 in 10.0 mi SW 10.4 mph - N/A   Partly Cloudy
4:53 PM 79.0 °F - 55.9 °F 45% 30.06 in 10.0 mi SW 13.8 mph - N/A   Clear
5:53 PM 78.1 °F - 55.9 °F 46% 30.05 in 10.0 mi South 12.7 mph - N/A   Partly Cloudy
6:53 PM 75.9 °F - 57.0 °F 52% 30.06 in 10.0 mi SW 9.2 mph - N/A   Clear
7:53 PM 71.1 °F - 57.9 °F 63% 30.07 in 10.0 mi Calm Calm - N/A   Clear
8:53 PM 66.0 °F - 57.9 °F 75% 30.06 in 10.0 mi SSW 4.6 mph - N/A   Clear
9:53 PM 64.0 °F - 57.9 °F 80% 30.07 in 10.0 mi SW 3.5 mph - N/A   Clear
10:53 PM 63.0 °F - 57.9 °F 84% 30.06 in 10.0 mi West 3.5 mph - N/A   Clear
11:53 PM 61.0 °F - 57.0 °F 87% 30.07 in 10.0 mi Calm Calm - N/A   Partly Cloudy